Вернуться в каталог

ORBCOMM FM 10

АктивенСвязьLEO
NORAD 25113·PAYLOAD·🇺🇸 United States

Запущен Dec 23, 1997 с Cape Canaveral Space Force Station

Loading…

Ближайшие Пролёты (ближайшие 24 часа)

TLE

СвежийSource: Space-Track

Эпоха: Sep 14, 2026, 13:16 UTC

1 25113U 97084B   26257.55334108  .00000775  00000-0  24994-3 0  9991
2 25113  45.0164 346.8475 0003036 335.2866  24.7840 14.47133332682301

Отслеживайте ORBCOMM FM 10 в реальном времени с AllMySat

Download on the App Store